Tracking 34138 objects as of 15-May-2026
HD Live streaming from Space Station
objects crossing your sky now

STARLINK-37116

Track STARLINK-37116 now!
10-day predictions
STARLINK-37116 is classified as:


NORAD ID: 68213
Int'l Code: 2026-053G
Perigee: 471.6 km
Apogee: 473.7 km
Inclination: 97.3 °
Period: 93.9 minutes
Semi major axis: 6843 km
RCS: Unknown
Launch date: March 17, 2026
Source: United States (US)
Launch site: AIR FORCE WESTERN TEST RANGE (AFWTR)
Your satellite tracking list
Your tracking list is empty




NASA's NSSDC Master Catalog

Two Line Element Set (TLE):
1 68213U 26053G   26135.22739127  .00010990  00000-0  34220-3 0  9999
2 68213  97.2832  10.7993 0001555 114.0699 246.0706 15.33449878 10411
Source of the keplerian elements: AFSPC